Location: Mahannah Oil Field
(37.4664°N, 96.6003°W)
Time: 09:50:42
(UTC+00:00)

Vanguard 2 - Pass Details

Date: 27 January 2021
Orbit: 552 x 2938 km, 32.9° (Epoch: 25 February)

Event Time Altitude Azimuth Distance (km) Brightness Sun altitude
Rises 01:25:36 0° 268° (W) 2,776 12.0 -20.1°
Reaches altitude 10° 01:27:43 10° 259° (W) 1,971 10.8 -20.5°
Maximum altitude 01:31:48 38° 190° (S) 1,126 8.5 -21.3°
Enters shadow 01:34:29 24° 140° (SE) 1,705 9.0 -21.9°
